CAPE
24 32 27 34 26 20 27 28 33 36 28 26 31 42 51 42 25 29 0 6 5 0 0 0 0 34 34 11 2 0 5 4 3 26 14 1 0 0 0 0 0 0 0 0 0 0 0 0 0 0 0 0 0 0
29 12 20 19 26 20 32 35 38 40 40 23 31 29 42 40 44 46 8 0 8 24 0 0 0 0 0 0 1 0 7 11 5 8 0 0 1 0 0 1 0 0 0 0 0 0 0 0 0 0 0 0 0 0
17 4 54 17 18 27 30 32 41 42 25 20 21 49 32 31 33 34 12 0 9 3 1 0 0 0 0 0 0 15 0 0 1 0 1 0 0 0 0 0 0 0 0 1 0 0 0 0 0 0 0 0 0 0
15 12 18 18 18 16 18 26 28 34 25 14 18 43 40 25 38 42 0 0 0 2 14 0 2 0 0 0 0 0 0 0 0 0 0 1 0 0 0 0 0 0 0 0 0 1 1 0 0 0 0 0 0 1
5 13 21 12 13 14 14 16 16 31 24 13 23 35 37 33 33 31 0 0 0 0 0 0 0 0 0 0 0 0 1 2 0 0 0 0 0 0 0 0 0 0 0 0 0 0 0 0 0 0 0 0 0 0
27 6 21 27 18 19 21 18 21 34 34 22 27 38 34 34 73 0 1 0 0 0 0 0 0 0 0 1 1 2 3 1 0 0 0 1 1 0 0 0 0 0 0 0 0 0 0 0 0 0 0 0 0 0
25 20 12 32 21 16 22 24 28 24 30 35 34 35 39 51 10 2 0 0 0 0 0 0 0 1 1 0 0 0 0 0 0 0 0 1 1 0 0 0 0 0 0 0 0 0 0 0 0 0 0 0 0 0
27 16 8 9 17 23 22 19 23 25 33 43 39 34 48 15 0 1 0 0 0 0 0 0 0 0 0 0 0 1 0 0 1 1 1 1 1 1 0 0 0 0 0 0 0 0 0 0 0 0 0 0 0 0
3 13 5 0 7 16 25 15 27 33 29 26 29 28 12 1 1 2 0 0 0 0 0 0 0 0 1 1 1 1 1 0 1 0 0 1 0 0 0 0 0 0 0 0 0 0 0 0 0 0 0 0 0 0
8 15 10 21 15 24 23 28 25 12 23 17 36 1 0 2 1 0 0 0 1 0 0 0 0 0 0 0 2 0 1 0 0 0 0 0 0 0 0 0 0 0 0 0 0 0 0 0 0 0 0 0 0 0
9 28 49 33 4 27 14 29 24 30 36 0 0 0 0 4 0 1 0 0 0 0 0 0 0 0 0 0 0 0 0 0 0 0 0 0 0 0 0 0 0 0 0 0 0 0 0 0 0 0 0 0 0 0
24 47 30 29 40 27 32 29 35 16 0 0 0 0 0 0 0 0 0 0 0 0 0 0 0 0 0 0 0 0 0 1 0 0 0 0 0 0 0 0 0 0 0 0 0 0 0 0 0 0 0 0 0 0
14 20 8 22 21 22 33 19 1 0 0 0 0 0 0 0 0 0 0 0 0 0 0 0 0 0 0 0 0 0 0 0 0 2 0 0 0 0 0 0 0 0 0 0 0 0 0 0 0 0 0 0 0 0
16 17 16 17 19 6 1 0 0 0 0 0 0 0 0 0 0 0 0 0 0 0 0 0 0 0 0 0 0 0 0 0 0 1 0 0 0 0 0 0 0 0 0 0 0 0 0 0 0 0 0 0 0 0
11 16 14 9 6 0 0 0 0 0 0 0 0 0 0 0 0 0 0 0 0 0 0 0 0 0 0 0 0 0 0 0 0 0 0 0 1 0 0 0 0 0 0 0 0 0 0 0 0 0 0 0 0 0
12 5 1 0 3 2 0 0 0 0 0 0 0 0 0 0 0 0 0 0 0 0 0 0 0 0 0 0 0 0 0 0 0 0 0 0 1 0 0 0 0 0 0 0 0 0 0 0 0 0 0 0 0 0
2 1 8 4 1 0 0 0 0 0 0 0 0 0 0 0 0 0 0 0 0 0 0 0 0 0 0 0 0 0 0 0 0 0 0 0 0 0 0 0 0 0 0 0 0 0 0 0 0 0 0 0 0 0
1 1 0 0 0 0 0 0 0 0 0 0 0 0 0 0 0 0 0 0 0 0 0 0 0 0 0 0 0 0 0 0 0 0 0 0 0 0 0 0 0 0 0 0 0 0 0 0 0 0 0 0 0 0
2 2 2 1 0 0 0 0 1 0 0 0 0 0 0 0 0 0 0 0 0 0 0 0 0 0 0 0 0 0 0 0 0 0 0 0 0 0 0 0 0 0 0 0 0 0 0 0 0 0 0 0 0 0
1 0 0 0 0 0 0 0 1 0 0 0 0 0 0 0 0 1 0 0 0 0 0 0 0 0 0 0 0 0 0 1 0 0 0 0 0 0 0 0 0 0 0 0 0 0 0 0 0 0 0 0 0 0
0 0 0 0 0 0 0 0 0 0 0 0 0 0 0 0 1 1 0 0 0 0 0 0 0 0 0 0 0 0 0 0 0 0 0 0 0 0 0 0 0 0 0 0 0 0 0 0 0 0 0 0 0 0
0 0 0 0 0 0 0 0 0 0 0 0 0 0 0 0 0 0 0 0 0 0 1 2 1 0 0 0 0 0 0 0 0 0 0 0 0 0 0 0 0 0 0 0 0 0 0 0 0 0 0 0 0 0
0 0 0 0 0 0 0 0 0 0 0 0 0 0 0 0 0 0 0 0 0 0 0 0 0 0 0 0 0 0 0 0 0 0 0 0 0 0 0 0 0 0 0 0 0 0 0 0 0 0 0 0 0 0
0 0 0 0 0 0 0 0 0 0 0 0 0 0 0 0 0 0 0 0 1 0 0 0 0 0 0 0 0 0 0 0 0 0 0 0 0 0 0 0 0 0 0 0 0 0 0 0 0 0 0 0 0 0
0 0 0 0 0 0 0 0 0 0 0 0 0 0 0 0 0 0 0 0 0 0 0 0 0 0 0 0 0 0 0 0 0 0 0 0 0 0 0 0 0 0 0 0 0 0 0 0 0 0 0 0 0 0
0 0 0 0 0 0 0 0 0 0 0 0 0 0 0 0 0 0 0 0 0 0 0 0 0 0 0 0 0 0 0 0 0 0 0 0 0 0 0 0 0 0 0 0 0 0 0 0 0 0 0 0 0 0
0 0 0 0 0 0 0 0 0 0 0 0 0 0 0 0 0 0 0 0 0 0 0 0 0 0 0 0 0 0 0 0 0 0 0 0 0 0 0 0 0 0 0 0 0 0 0 0 0 0 0 0 0 0
0 0 0 0 0 0 0 0 0 0 0 0 0 0 0 0 0 0 0 0 0 0 0 0 0 0 0 0 0 0 0 0 0 0 0 0 0 0 0 0 0 0 0 0 0 0 0 0 0 0 0 0 0 0
0 0 0 0 0 0 0 0 0 0 0 0 0 0 0 0 0 0 1 0 0 0 0 0 0 0 0 0 0 0 0 0 0 0 0 0 0 0 0 0 0 0 0 0 0 0 0 0 0 0 0 0 0 0
0 0 0 0 0 0 0 0 0 0 0 0 0 0 0 0 0 0 0 0 0 0 0 0 0 0 0 0 0 0 0 0 0 0 0 0 0 0 0 0 0 0 0 0 0 0 0 0 0 0 0 0 0 0
0 0 0 0 0 1 0 0 0 0 0 0 0 0 0 0 0 0 0 1 0 0 0 0 0 0 0 0 0 0 0 0 0 0 0 0 0 0 0 0 0 0 0 0 0 0 0 0 0 0 0 0 0 0
0 0 0 0 0 0 0 0 0 0 0 0 0 0 0 0 0 0 0 0 0 0 0 0 0 0 0 0 0 0 0 0 0 0 0 0 0 0 0 0 0 0 0 0 0 0 0 0 0 0 0 0 0 0
0 0 0 0 0 0 0 0 0 0 0 0 0 0 0 0 0 0 0 0 0 0 0 0 0 0 0 0 0 0 0 0 0 0 0 0 0 0 0 0 0 0 0 0 0 0 0 0 0 0 0 0 0 0
CIN
0 0 -0 -0 -0 0 -1 -0 -0 -0 -0 -1 -6 -7 -6 -11 -19 -3 0 -33 -8 0 0 0 0 -20 -14 -20 -15 0 -11 -1 -7 -3 -1 -1 -0 0 0 0 0 0 0 0 0 0 0 0 0 0 0 0 0 0
-0 -0 -0 -0 -0 -0 -0 -0 -0 -0 -1 -4 -6 -10 -10 -9 -9 -8 -1 0 -59 -5 0 0 0 0 0 0 -5 -1 -51 -52 -56 -14 -4 -1 -10 0 0 -7 0 0 0 0 0 0 0 0 0 0 0 0 0 0
-2 -5 0 -0 -0 -0 -0 -0 0 -0 -4 -5 -5 -2 -12 -16 -15 -5 -3 0 -20 -30 -1 0 0 0 0 0 0 -17 -1 0 -64 0 -32 0 0 0 0 0 0 0 0 0 0 0 0 0 0 0 0 0 0 0
-2 -1 -0 -0 0 -0 -1 -0 -0 -0 -2 -8 -7 -4 -8 -13 -11 -5 0 0 -7 -12 -2 0 0 0 0 0 0 0 0 0 0 0 -3 -3 0 0 0 0 0 0 0 0 0 0 0 0 0 0 0 0 0 0
-4 -1 -0 -2 -1 -0 -0 -0 -0 0 -1 -7 -6 -5 -6 -9 -8 -2 -0 0 0 -1 0 0 0 0 0 0 0 0 0 0 0 -12 0 0 0 0 0 0 0 0 0 0 0 0 0 0 0 0 0 0 0 0
-1 -1 0 0 -1 -0 0 -0 -1 -0 0 -3 -4 -1 -5 -9 -3 -1 0 0 0 0 0 0 0 0 0 0 0 0 0 -0 0 0 0 0 0 0 0 0 0 0 0 0 0 0 0 0 0 0 0 0 0 0
-1 -4 -1 0 -0 -1 0 0 0 -1 -0 -0 -1 -1 -4 -5 -3 -0 0 0 0 0 0 0 0 0 0 0 0 0 0 0 0 0 0 0 0 0 0 0 0 0 0 0 0 0 0 0 0 0 0 0 0 0
-1 -2 -1 -8 -4 -1 -1 -0 -0 -0 0 0 -0 -2 -1 -3 -2 0 0 0 0 0 0 0 0 0 0 0 -1 0 0 0 0 0 0 0 0 0 0 0 0 0 0 0 0 0 0 0 0 0 0 0 0 0
-1 -1 -1 0 -8 -5 0 -2 -0 0 0 0 0 -1 -2 -2 0 -2 0 0 0 -0 -2 0 0 0 0 0 0 0 0 0 0 0 0 0 0 0 0 0 0 0 0 0 0 0 0 0 0 0 0 0 0 0
-0 -1 -1 -4 -1 -1 0 0 0 -2 0 -2 -0 -1 0 -0 0 -0 0 0 0 -1 0 0 0 0 0 0 0 0 0 0 0 0 0 0 0 0 0 0 0 0 0 0 0 0 0 0 0 0 0 0 0 0
-0 -0 -3 -7 -2 -6 -1 0 -0 0 -0 0 0 0 0 -4 0 0 0 0 0 0 0 0 0 0 0 0 0 0 0 0 0 0 0 0 0 0 0 0 0 0 0 0 0 0 0 0 0 0 0 0 0 0
-7 -1 -6 -45 0 -0 0 0 -0 -2 0 0 0 0 0 0 0 0 0 0 0 0 0 0 0 0 0 0 0 0 0 0 0 0 0 0 0 0 0 0 0 0 0 0 0 0 0 0 0 0 0 0 0 0
-57 -21 -7 -2 -0 -1 0 -1 -0 0 0 0 0 0 0 0 0 0 0 0 0 0 0 0 0 0 0 0 0 0 0 0 0 0 0 0 0 0 0 0 0 0 0 0 0 0 0 0 0 0 0 0 0 0
-0 0 0 0 -26 -2 0 0 0 0 0 0 0 0 0 0 0 0 0 0 0 0 0 0 0 0 0 0 0 0 0 0 0 0 0 0 0 0 0 0 0 0 0 0 0 0 0 0 0 0 0 0 0 0
-0 0 -0 -1 -1 0 0 -0 0 0 0 0 0 0 0 0 0 0 0 0 0 0 0 0 0 0 0 0 0 0 0 0 0 0 0 0 0 0 0 0 0 0 0 0 0 0 0 0 0 0 0 0 0 0
-0 0 0 -0 0 -0 0 0 0 0 0 0 0 0 0 0 0 0 0 0 0 0 0 0 0 0 0 0 0 0 0 0 0 0 0 0 0 0 0 0 0 0 0 0 0 0 0 0 0 0 0 0 0 0
-0 -0 0 0 -1 0 0 0 0 0 0 0 0 0 0 0 0 0 0 0 0 0 0 0 0 0 0 0 0 0 0 0 0 0 0 0 0 0 0 0 0 0 0 0 0 0 0 0 0 0 0 0 0 0
0 0 0 0 0 0 0 0 0 0 0 0 0 0 0 0 0 0 0 0 0 -0 0 0 0 0 0 0 0 0 0 0 0 0 0 0 0 0 0 0 0 0 0 0 0 0 0 0 0 0 0 0 0 0
0 0 -1 -1 0 0 0 0 0 0 0 0 0 0 0 0 0 0 0 0 0 0 0 0 0 0 0 0 0 0 0 0 0 0 0 0 0 0 0 0 0 0 0 0 0 0 0 0 0 0 0 0 0 0
0 -0 0 0 0 0 0 0 0 0 0 0 0 0 0 0 0 0 0 0 0 0 0 0 0 0 0 0 0 0 0 0 0 0 0 0 0 0 0 0 0 0 0 0 0 0 0 0 0 0 0 0 0 0
0 0 0 0 0 0 0 0 0 0 0 0 0 0 0 0 0 0 0 0 0 0 0 0 0 0 0 0 0 0 0 0 0 0 0 0 0 0 0 0 0 0 0 0 0 0 0 0 0 0 0 0 0 0
0 0 0 0 0 0 0 0 0 0 0 0 0 0 0 0 0 0 0 0 0 0 0 0 0 0 0 0 0 0 0 0 0 0 0 0 0 0 0 0 0 0 0 0 0 0 0 0 0 0 0 0 0 0
0 0 0 0 0 0 0 0 0 0 0 0 0 0 0 0 0 0 0 0 0 0 0 0 0 0 0 0 0 0 0 0 0 0 0 0 0 0 0 0 0 0 0 0 0 0 0 0 0 0 0 0 0 0
0 0 0 0 0 0 0 0 0 0 0 0 0 0 0 0 0 0 0 0 0 0 0 0 0 0 0 0 0 0 0 0 0 0 0 0 0 0 0 0 0 0 0 0 0 0 0 0 0 0 0 0 0 0
0 0 0 0 0 0 0 0 0 0 0 0 0 0 0 0 0 0 0 0 0 0 0 0 0 0 0 0 0 0 0 0 0 0 0 0 0 0 0 0 0 0 0 0 0 0 0 0 0 0 0 0 0 0
0 0 0 0 0 0 0 0 0 0 0 0 0 0 0 0 0 0 0 0 0 0 0 0 0 0 0 0 0 0 0 0 0 0 0 0 0 0 0 0 0 0 0 0 0 0 0 0 0 0 0 0 0 0
0 0 0 0 0 0 0 0 0 0 0 0 0 0 0 0 0 0 0 0 0 0 0 0 0 0 0 0 0 0 0 0 0 0 0 0 0 0 0 0 0 0 0 0 0 0 0 0 0 0 0 0 0 0
0 0 0 0 0 0 0 0 0 0 0 0 0 0 0 0 0 0 0 0 0 0 0 0 0 0 0 0 0 0 0 0 0 0 0 0 0 0 0 0 0 0 0 0 0 0 0 0 0 0 0 0 0 0
0 0 0 0 0 0 0 0 0 0 0 0 0 0 0 0 0 0 0 0 0 0 0 0 0 0 0 0 0 0 0 0 0 0 0 0 0 0 0 0 0 0 0 0 0 0 0 0 0 0 0 0 0 0
0 0 0 0 0 0 0 0 0 0 0 0 0 0 0 0 0 0 0 0 0 0 0 0 0 0 0 0 0 0 0 0 0 0 0 0 0 0 0 0 0 0 0 0 0 0 0 0 0 0 0 0 0 0
0 0 0 0 -0 0 0 0 0 0 0 0 0 0 0 0 0 0 0 0 0 0 0 0 0 0 0 0 0 0 0 0 0 0 0 0 0 0 0 0 0 0 0 0 0 0 0 0 0 0 0 0 0 0
0 0 0 0 0 0 0 0 0 0 0 0 0 0 0 0 0 0 0 0 0 0 0 0 0 0 0 0 0 0 0 0 0 0 0 0 0 0 0 0 0 0 0 0 0 0 0 0 0 0 0 0 0 0
0 0 0 0 0 0 -1 0 0 -0 0 0 0 0 0 0 0 0 0 0 0 0 0 0 0 0 0 0 0 0 0 0 0 0 0 0 0 0 0 0 0 0 0 0 0 0 0 0 0 0 0 0 0 0
Wind_Speed
50 52 54 53 50 48 51 51 50 51 49 48 47 44 43 41 41 40 37 35 36 37 32 27 26 30 27 28 31 25 25 26 23 24 26 26 28 26 29 29 32 34 34 32 29 36 41 24 24 28 27 26 27 27
45 46 49 49 47 46 46 47 49 48 48 49 48 47 44 42 41 39 38 37 29 33 32 31 24 23 23 25 24 22 24 19 19 21 23 24 24 23 26 36 22 29 20 28 25 30 24 25 25 25 28 27 26 26
40 40 38 39 43 44 44 44 44 44 47 46 46 47 46 45 44 41 36 35 32 32 31 31 33 27 24 23 22 27 26 26 23 23 24 26 26 23 27 32 27 28 22 28 27 24 28 25 25 24 22 20 23 24
35 38 38 39 41 43 43 43 43 43 43 44 44 43 42 43 43 42 37 36 36 29 39 32 28 30 28 25 26 25 27 27 27 28 31 30 28 26 29 33 31 26 18 25 32 30 24 25 21 18 19 20 21 23
30 35 41 41 40 42 43 43 42 43 43 42 42 42 40 40 40 38 35 36 36 34 31 36 29 28 28 31 33 28 28 29 29 31 33 33 30 26 33 33 32 25 27 27 32 22 24 22 18 17 17 20 21 23
27 30 39 45 41 41 41 41 40 39 39 40 40 40 40 39 37 34 33 38 35 34 30 27 29 35 31 29 27 29 28 26 28 29 31 32 29 27 37 37 31 21 20 19 25 18 18 15 14 15 16 18 21 24
28 30 34 41 42 39 38 37 38 38 36 37 37 37 36 36 36 37 33 30 32 30 33 32 31 26 24 29 30 28 27 28 27 30 31 30 30 25 36 39 31 22 17 16 13 15 17 10 13 13 16 18 21 24
30 31 34 39 38 39 38 36 35 35 34 34 35 34 33 33 29 30 27 20 28 28 27 31 31 30 28 27 30 30 32 29 28 29 28 29 30 29 40 31 20 18 13 15 16 16 8 8 10 14 16 19 22 25
28 32 33 34 35 33 37 35 35 34 33 33 33 32 31 33 30 29 22 22 23 25 30 32 35 36 27 29 27 26 27 33 27 29 30 26 32 37 33 22 16 11 16 11 9 7 8 9 11 14 17 19 22 24
29 31 32 34 35 32 34 35 34 34 34 35 36 34 28 30 24 19 21 26 26 28 29 33 29 32 26 27 27 24 24 27 30 31 25 35 40 35 28 20 10 11 8 2 4 6 7 9 11 14 16 18 20 23
32 31 35 37 38 33 35 39 39 39 42 34 28 26 25 29 26 22 23 27 26 31 33 31 30 28 27 28 29 27 25 22 31 34 32 37 39 27 19 11 7 7 1 2 5 6 7 8 10 13 16 17 19 20
44 43 42 46 44 38 41 41 42 38 32 31 25 24 25 25 25 27 28 28 30 34 29 31 29 25 24 22 24 24 29 28 37 23 33 38 34 12 9 8 3 3 5 4 6 7 9 10 11 13 15 15 15 18
44 41 45 46 43 40 41 39 35 30 29 24 26 23 24 24 29 33 35 30 28 27 28 25 25 24 22 24 23 24 34 39 27 37 41 37 14 8 4 2 6 8 6 5 7 8 10 10 12 13 13 13 14 19
55 50 44 42 34 33 34 36 36 35 31 25 23 27 27 28 26 28 29 28 26 19 18 20 23 25 24 26 27 37 37 31 38 39 38 19 8 2 2 7 11 9 7 7 7 8 9 10 11 12 12 13 16 18
53 49 39 39 38 34 35 38 35 32 30 27 22 25 25 22 20 19 18 20 23 17 16 19 23 24 27 34 37 34 35 39 38 35 29 7 5 6 10 12 12 11 9 8 7 8 9 9 10 12 13 15 16 18
31 29 34 34 35 37 35 35 30 25 23 24 24 27 25 27 28 25 26 26 22 23 24 24 31 36 42 40 39 43 41 39 32 24 13 2 6 11 14 15 13 11 10 8 7 8 9 9 10 12 13 14 16 18
26 34 30 30 31 30 25 30 27 26 24 26 31 27 35 35 40 38 36 35 28 41 46 38 40 39 30 40 44 38 38 31 19 13 2 4 12 17 17 15 14 11 9 8 8 9 9 10 11 12 13 14 16 19
25 27 27 26 25 24 25 23 25 27 31 30 32 33 30 32 39 36 34 35 42 46 42 38 32 38 38 36 36 35 26 14 12 5 2 11 16 17 17 15 13 12 10 9 9 9 10 10 10 10 13 14 17 19
32 25 25 25 28 26 24 26 25 29 28 26 26 27 28 29 31 36 36 38 33 35 34 34 34 36 36 31 28 18 14 11 3 4 9 13 16 15 13 13 12 10 10 10 10 9 9 9 9 11 12 14 17 18
19 21 20 18 22 18 22 24 21 23 27 26 25 26 27 29 29 30 30 31 32 33 34 34 33 29 30 31 25 5 6 8 12 13 12 11 10 11 12 12 11 11 10 10 10 10 10 10 10 11 12 14 16 17
22 22 19 19 18 16 21 24 24 22 21 23 24 26 26 27 30 31 29 28 30 30 30 28 29 28 19 9 3 7 11 15 16 16 20 16 11 11 11 10 11 10 10 10 9 9 9 8 9 10 12 14 16 16
25 22 21 20 20 19 19 20 24 22 21 23 23 23 23 25 27 27 26 27 28 26 24 22 17 8 3 5 9 10 11 9 8 9 10 15 14 12 11 11 10 9 9 9 9 8 8 8 9 10 12 14 15 16
21 20 19 19 21 21 22 19 22 21 24 24 23 23 23 22 23 25 22 24 23 19 14 10 8 5 9 10 10 8 7 10 9 11 13 12 11 10 11 10 9 10 9 8 8 8 8 8 9 10 12 13 14 16
16 18 22 22 21 23 23 22 22 22 22 25 24 24 25 23 25 22 22 23 17 15 11 5 8 10 7 6 6 6 5 5 8 8 11 12 10 10 10 9 9 9 8 8 8 7 7 7 8 10 11 13 14 15
20 20 20 21 20 22 24 25 25 24 25 24 22 22 24 24 23 21 22 20 14 5 7 7 7 6 9 6 5 4 4 9 11 12 10 8 9 10 9 9 8 7 8 7 7 6 6 7 8 9 11 12 13 14
20 18 19 20 22 23 24 27 27 26 26 24 22 19 18 19 19 20 19 9 8 7 9 9 9 6 4 4 10 8 7 6 7 8 7 8 9 9 9 8 7 6 6 6 6 5 5 6 7 8 10 12 13 14
19 19 17 16 19 19 19 19 20 21 22 21 22 20 17 17 16 17 15 18 14 18 10 5 5 7 9 8 4 4 5 4 5 6 7 8 8 8 8 7 6 5 6 6 5 5 5 5 6 8 10 12 12 13
16 16 19 18 18 17 20 19 20 22 20 19 17 18 15 13 10 14 18 20 10 6 4 4 1 5 7 5 6 7 5 5 7 8 8 9 9 8 7 7 9 8 7 6 5 5 5 6 7 8 10 11 12 12
14 15 15 15 17 15 15 16 17 17 17 15 12 12 9 10 15 16 16 9 4 6 5 4 1 3 3 4 5 5 4 4 5 4 4 4 6 5 6 6 7 7 7 7 7 6 6 7 8 9 11 12 13 14
16 15 15 15 15 15 15 15 15 14 14 11 10 6 7 9 10 9 7 5 3 5 5 6 6 5 6 5 3 3 6 6 4 5 4 3 3 5 5 5 5 6 7 7 8 9 11 12 13 13 13 14 14 15
15 14 14 13 13 9 5 3 3 3 5 2 4 3 4 8 7 7 8 8 3 1 3 4 2 2 5 3 2 1 3 5 6 7 9 11 6 4 4 4 5 6 6 6 6 7 9 11 12 13 13 14 14 14
15 14 11 10 7 7 8 8 6 4 5 5 7 9 9 9 10 12 14 11 5 2 3 1 1 0 4 5 6 9 10 5 4 6 8 8 7 5 5 5 5 5 6 6 6 8 10 11 12 13 14 14 15 16
10 7 6 7 10 10 8 7 7 9 10 11 11 12 12 13 12 13 13 12 8 5 4 4 4 4 5 5 7 10 12 9 7 8 8 7 6 6 6 5 5 5 6 6 7 9 10 12 13 13 14 15 16 16
Wind_Direction
245 244 242 239 235 233 233 232 232 231 230 229 227 224 221 218 217 219 232 232 233 242 251 257 261 257 260 257 257 267 271 273 272 272 282 283 289 290 294 295 292 293 300 298 300 296 302 316 318 314 322 328 325 327
244 245 242 235 229 229 228 228 228 228 227 226 225 223 221 218 216 214 235 227 236 241 252 253 263 264 266 263 263 264 272 278 272 279 279 286 286 298 300 298 302 293 294 301 301 307 318 323 322 323 324 324 328 331
241 241 234 223 225 225 225 224 224 224 224 223 222 221 219 218 218 215 229 221 229 236 249 252 251 260 266 267 269 262 269 274 277 281 288 287 288 294 294 296 297 300 303 304 309 308 313 317 322 327 334 336 339 342
236 233 230 226 224 224 221 221 221 220 220 220 219 218 216 215 216 215 227 220 222 239 244 253 256 257 258 265 267 269 271 273 277 281 279 281 286 294 298 291 296 303 309 311 303 312 317 322 327 332 339 344 347 352
226 228 226 224 221 220 220 219 219 218 217 215 215 214 212 211 211 215 226 221 221 225 249 248 254 258 259 258 260 264 270 269 273 273 273 279 284 295 291 295 292 304 302 308 310 317 317 322 331 336 341 345 351 351
211 217 222 220 217 217 216 214 212 211 210 210 209 209 208 207 202 212 227 225 222 225 245 253 256 251 255 255 258 258 263 269 272 276 278 280 283 287 285 288 297 306 310 313 316 326 329 336 343 349 353 354 355 353
203 208 214 215 213 211 209 206 206 206 202 204 203 202 200 198 201 213 228 227 213 221 237 247 251 252 252 248 252 257 262 265 273 279 280 281 280 288 284 282 299 309 309 320 334 335 328 336 339 359 359 0 358 357
199 203 206 208 207 205 203 199 198 198 195 194 195 194 193 192 205 221 233 199 198 222 240 244 247 245 245 251 251 254 255 264 272 277 280 282 279 283 278 292 301 311 318 320 320 325 346 21 9 1 1 359 356 356
181 192 196 199 198 195 195 192 192 189 183 182 183 182 187 204 213 216 211 192 210 233 236 240 237 242 242 247 251 256 259 260 270 275 277 283 273 271 289 298 297 298 310 319 350 20 26 10 2 0 360 0 359 357
174 181 187 190 190 186 183 184 181 177 175 175 179 192 205 202 167 170 205 216 226 237 240 239 236 237 240 243 248 254 262 263 267 270 275 266 265 278 297 302 293 305 311 42 27 5 7 0 2 4 4 4 2 1
163 174 181 185 185 174 176 178 176 171 170 185 194 201 190 168 198 217 221 220 228 232 234 235 237 236 244 243 245 252 261 269 265 259 260 260 264 289 300 306 291 294 217 75 13 34 21 24 18 11 6 7 8 8
171 175 178 179 180 172 176 174 170 178 188 190 185 182 193 206 217 222 226 226 232 232 234 229 234 240 244 249 252 255 257 261 248 262 256 254 275 300 309 309 297 150 131 67 48 39 36 32 23 15 14 16 16 13
169 171 173 175 174 174 176 170 172 160 157 169 186 206 205 215 220 222 221 223 229 233 231 226 230 238 245 250 257 258 248 243 256 250 248 267 300 301 319 51 126 131 116 75 50 48 42 32 25 22 25 24 22 16
156 164 169 172 165 163 162 159 161 173 181 200 205 207 219 221 231 232 224 226 230 237 218 214 228 241 246 245 250 236 238 247 237 245 259 288 272 223 134 136 140 136 116 94 80 58 39 35 32 35 32 30 23 19
155 161 164 168 167 153 157 169 179 187 193 206 217 219 225 233 234 228 228 223 229 218 211 223 240 245 241 235 232 235 235 232 237 255 277 289 174 152 145 146 141 132 120 101 77 54 47 53 46 39 38 31 27 24
155 150 157 149 156 169 176 179 188 197 209 215 221 217 222 219 221 226 228 228 224 213 213 227 227 223 219 223 225 221 224 231 253 281 305 111 141 146 143 140 136 127 116 95 77 68 71 63 50 45 39 32 28 22
150 160 142 150 162 167 170 185 195 203 213 216 205 216 208 206 198 205 210 213 211 201 195 203 205 210 220 219 219 227 233 252 279 300 356 133 142 141 137 132 129 121 111 96 83 86 78 62 56 49 34 31 25 22
146 151 156 163 167 173 187 196 200 207 201 205 198 203 200 207 200 207 209 204 198 197 202 209 214 214 216 220 228 238 258 280 292 319 85 129 133 132 131 129 123 119 107 99 99 90 75 65 60 44 35 30 24 22
165 165 170 177 185 189 195 201 206 195 204 214 219 215 216 209 207 205 205 203 207 205 205 208 213 217 222 233 247 266 266 264 184 129 125 129 130 129 124 119 115 109 107 107 101 88 74 70 59 46 36 29 22 21
165 172 177 185 192 202 197 200 224 203 201 208 208 206 205 201 195 195 198 202 201 202 207 213 221 232 239 246 256 245 179 146 133 131 129 130 129 125 123 120 114 108 101 95 88 80 69 60 53 45 36 29 23 21
179 188 196 202 209 223 200 197 202 203 203 202 198 194 191 191 189 189 193 201 205 213 220 230 238 248 247 257 222 146 138 135 134 129 131 129 124 119 113 107 106 103 102 101 95 82 72 66 55 46 36 28 26 23
187 195 199 207 208 210 206 214 197 198 199 192 191 192 190 190 190 195 201 205 208 218 226 227 229 232 192 136 125 128 133 135 126 118 110 115 117 117 117 115 109 106 105 106 94 87 76 63 56 45 35 29 28 23
193 203 210 215 203 204 198 211 197 201 193 193 193 192 194 199 201 196 204 204 211 224 226 220 210 168 115 115 119 133 132 119 114 113 113 105 101 99 103 102 104 105 101 97 93 83 72 64 53 40 33 30 26 21
212 214 202 204 206 202 205 206 204 201 197 196 200 199 199 200 197 208 210 210 220 219 212 146 125 124 135 141 139 132 120 103 101 96 104 103 96 97 99 97 96 96 97 91 86 78 72 62 48 35 30 25 22 19
204 208 211 211 218 212 204 201 202 202 200 201 202 201 199 202 208 213 214 215 217 180 139 134 138 151 125 135 126 108 88 104 108 107 95 85 84 83 78 79 80 87 88 85 81 79 69 54 41 32 26 22 20 19
204 212 213 214 212 207 204 198 198 195 191 197 203 208 213 213 217 225 229 208 201 174 155 145 144 149 148 124 112 105 97 87 88 86 75 88 98 96 89 86 84 82 88 90 80 74 61 48 37 29 23 20 20 19
204 206 214 219 209 205 204 207 204 206 206 211 208 212 220 227 237 237 233 218 217 218 212 185 137 122 118 111 85 62 69 46 38 56 60 75 83 85 83 85 82 78 87 92 83 68 60 46 33 25 20 19 19 19
217 218 206 208 206 208 202 204 209 210 216 219 218 224 232 247 263 241 225 220 219 184 187 231 222 108 109 101 95 87 49 30 29 36 34 22 19 35 56 53 43 56 76 82 75 64 53 43 31 24 19 16 16 18
234 226 222 217 215 224 226 228 227 229 230 231 237 243 266 273 240 230 230 230 183 147 147 131 93 89 81 69 63 65 66 61 52 51 50 29 24 33 35 49 43 50 58 56 49 48 41 34 28 22 18 17 16 16
238 240 234 233 232 236 241 248 245 246 242 248 259 247 245 248 256 257 257 246 169 140 134 124 119 119 117 115 94 359 326 349 40 37 36 25 49 32 46 46 48 54 56 51 44 35 28 23 19 16 14 12 13 13
248 247 244 244 243 246 257 332 344 306 274 300 231 207 234 244 267 297 287 276 277 164 124 121 110 93 114 113 98 31 2 358 14 11 5 2 29 36 51 56 55 57 52 46 39 29 20 15 12 10 9 8 7 7
258 255 241 233 235 249 259 274 278 268 252 242 244 244 248 256 269 280 287 290 312 315 317 24 131 105 323 327 327 326 339 10 18 6 3 5 16 34 56 57 56 50 43 36 29 21 13 10 8 6 5 3 2 2
255 242 233 245 245 254 258 263 262 259 258 255 257 259 265 274 279 283 295 308 318 340 350 345 349 357 344 334 329 325 337 354 7 6 9 17 29 41 49 52 51 45 36 26 18 12 6 4 1 0 360 359 359 359